Flag for U.S.A. Weather past 2 weeks in Panama City, Florida, U.S.A.

Now
58 °F

Low clouds.


Feels Like: 58 °F
Forecast: 58 / 70 °F
Wind: 5 mph from Northeast

Location: Tyndall Air Force Base

Current Time: Mar 1, 2015 at 11:09:08 PM

Latest Report: Mar 1, 2015 at 9:58 PM


Visibility: 10 mi

Pressure: 30.38 "Hg

Humidity: 93%

Dew point: 56 °F

Location of Panama CityLocation

Historic Weather in Panama City — Graph

°F

Panama City temperature yesterday

Maximum temperature yesterday: 55 °F (at 1:58 PM)
Minimum temperature yesterday: 46 °F (at 3:58 AM)
Average temperature yesterday: 50 °F

Past Weeks' High & Low Weather Summary

 TemperatureHumidityPressure
High72 °F (Feb 23, 1:58 PM)100% (Feb 17, 3:03 AM)30.47 "Hg (Feb 17, 3:03 AM)
Low29 °F (Feb 20, 5:58 AM)22% (Feb 19, 2:58 PM)29.51 "Hg (Feb 25, 5:58 PM)
Average52 °F75%30.15 "Hg
* Reported Feb 14 9:58 PM — Mar 1 9:58 PM, Panama City, Weather by CustomWeather, © 2015

Note: Actual official high and low records may vary slightly from our data, if they occured in-between our weather recording intervals... More about our weather records

Advertising

Panama City weather history for previous 24 hours

 ConditionsComfort  
Time TempWeatherWind HumidityBarometerVisibility
9:58 PM
Sun, Mar 1
58 °FLow clouds.5 mph93%30.38 "Hg10 mi
9:03 PM59 °FFog.5 mph94%30.36 "Hg4 mi
7:58 PM62 °FLow clouds.3 mph89%30.36 "Hg10 mi
6:58 PM63 °FOvercast.3 mph89%30.34 "Hg10 mi
4:58 PM64 °FLow clouds.3 mph85%30.32 "Hg10 mi
3:58 PM64 °FLow clouds.2 mph85%30.32 "Hg10 mi
2:58 PM64 °FOvercast.6 mph82%30.31 "Hg10 mi
12:58 PM62 °FOvercast.7 mph81%30.34 "Hg10 mi
11:58 AM61 °FLow clouds.8 mph81%30.36 "Hg10 mi
10:58 AM59 °FLow clouds.10 mph86%30.38 "Hg10 mi
9:58 AM56 °FLow clouds.7 mph88%30.41 "Hg10 mi
8:03 AM50 °FFog.7 mph100%30.40 "Hg5 mi
6:53 AM50 °FFog.6 mph94%30.39 "Hg2 mi
6:03 AM50 °FFog.10 mph94%30.37 "Hg5 mi
5:53 AM50 °FLow clouds.9 mph94%30.37 "Hg7 mi
4:58 AM49 °FLow clouds.6 mph95%30.39 "Hg10 mi
3:58 AM49 °FLow clouds.7 mph94%30.36 "Hg10 mi
2:58 AM49 °FLow clouds.8 mph94%30.36 "Hg10 mi
12:58 AM49 °FLow clouds.10 mph94%30.39 "Hg10 mi
11:58 PM
Sat, Feb 28
50 °FLow clouds.10 mph91%30.41 "Hg10 mi
Weather by CustomWeather, © 2015

See weather overviewHow to use our weather pages